SCP
0 0 0 0 0 0 0 0 0 0 0 0 0 0 0 0 0 0 0 0 0 0 0 0 0 0 0 0 0 0 0 0 -0 0 0 0 0 0 0 0 0 0 0 0 0 0 0 0 0 0 0 0 0 0
0 0 0 0 0 0 0 0 0 0 0 0 0 0 0 0 0 0 0 0 0 0 0 -0 0 0 0 0 0 0 0 0 0 0 0 0 0 0 0 0 0 0 0 0 0 0 0 0 0 0 0 0 0 0
0 0 0 0 0 0 0 0 0 0 0 0 0 0 0 0 0 0 0 0 0 0 0 0 0 0 0 0 0 0 0 0 -0 0 -0 0 0 0 0 0 0 0 0 0 0 0 0 0 0 0 0 0 0 0
0 0 0 0 0 0 0 0 0 0 0 0 0 0 0 0 0 0 0 0 0 0 0 0 0 0 0 0 0 0 0 0 0 0 -0 -0 0 0 0 0 0 0 0 0 0 0 0 0 0 0 0 0 0 0
0 0 0 0 0 0 0 0 0 0 0 0 0 0 0 0 0 0 0 0 0 0 0 0 0 0 0 0 0 0 0 0 0 0 -0 0 0 0 0 0 0 0 0 0 0 0 0 0 0 0 0 0 0 0
0 0 0 0 0 0 0 0 0 0 0 0 0 0 0 0 0 0 0 0 0 0 0 0 0 0 0 0 0 0 0 0 0 0 0 -0 -0 0 0 0 0 0 0 0 0 0 0 0 0 0 0 0 0 0
0 0 0 0 0 0 0 0 0 0 0 0 0 0 0 0 0 0 0 0 0 0 0 0 0 0 0 0 0 0 0 0 0 0 0 0 -0 -0 0 0 0 0 0 0 0 0 0 0 0 0 0 0 0 0
0 0 0 0 0 0 0 0 0 0 0 0 0 0 0 0 0 0 0 0 0 0 0 0 0 0 0 0 0 0 0 0 0 0 0 0 0 0 -0 0 0 0 0 0 0 0 0 0 0 0 0 0 0 0
0 0 0 0 0 0 0 0 0 0 0 0 0 0 0 0 0 0 0 0 0 0 0 0 0 0 0 0 0 0 0 0 0 0 0 0 0 -0 0 -0 0 0 0 0 0 0 0 0 0 0 0 0 0 0
0 0 0 0 0 0 0 0 -0 0 0 0 0 0 0 0 0 0 0 0 0 0 0 0 0 0 0 0 0 0 0 0 0 0 0 0 0 0 -0 -0 -0 -0 -0 -0 0 0 0 0 0 0 0 0 0 0
0 0 0 0 0 0 0 0 0 -0 -0 0 0 0 0 0 0 0 0 0 0 0 0 0 0 0 0 0 0 -0 0 0 0 0 0 0 0 0 0 0 -0 -0 -0 -0 -0 0 0 0 0 0 0 0 0 0
0 0 0 0 0 0 0 0 0 0 0 0 0 0 0 0 0 0 0 0 0 0 0 0 0 0 0 0 0 0 0 0 0 0 0 0 0 0 -0 -0 0 -0 -0 -0 -0 0 0 0 0 0 0 -0 0 0
0 0 0 -0 0 0 0 0 0 0 0 0 0 0 0 0 0 0 0 0 0 0 0 0 -0 0 0 0 0 0 0 0 0 0 0 0 0 0 0 0 -0 -0 -0 0 0 0 0 0 0 0 0 0 -0 0
0 0 0 0 0 0 0 0 0 0 0 0 0 0 0 0 0 0 0 0 0 0 0 0 0 0 0 0 0 0 0 0 0 0 0 0 -0 -0 -0 0 -0 0 -0 -0 0 0 0 0 0 0 0 0 0 0
0 0 0 0 0 0 0 0 0 0 0 0 0 0 0 0 0 0 0 0 0 0 0 0 0 0 0 0 0 0 0 0 0 0 0 -0 -0 -0 -0 0 0 0 0 -0 -0 0 0 0 0 0 0 0 0 0
0 0 0 0 0 0 0 0 0 0 0 0 0 0 0 0 0 0 0 0 0 0 0 0 0 0 0 0 0 0 0 0 0 0 0 -0 -0 -0 -0 0 -0 -0 -0 0 -0 0 0 0 0 0 0 0 0 0
0 0 0 0 0 0 0 0 0 0 0 0 0 0 0 0 0 0 0 0 0 0 0 0 0 0 0 0 0 0 0 0 0 0 0 0 0 0 -0 -0 0 0 -0 0 -0 -0 -0 0 -0 -0 0 0 0 0
0 0 0 0 0 0 0 0 0 0 0 0 0 0 0 0 0 0 0 0 0 0 0 0 0 0 0 0 0 0 0 0 0 0 0 0 0 0 0 0 0 0 -0 -0 -0 -0 -0 0 -0 -0 0 0 0 0
0 0 0 0 0 0 0 0 0 0 0 0 0 0 0 0 0 0 0 0 0 0 0 0 0 0 0 0 0 0 0 0 0 0 0 0 0 0 0 0 0 0 0 0 -0 -0 -0 -0 -0 -0 -0 -0 -0 -0
0 0 0 0 0 0 0 0 0 0 0 0 0 0 0 0 0 0 0 0 0 0 0 0 0 0 0 0 0 0 0 0 0 0 0 0 0 0 0 0 0 0 0 0 0 -0 -0 -0 -0 -0 -0 -0 -0 -0
0 0 0 0 0 0 0 0 0 0 0 0 0 0 0 0 0 0 0 0 0 0 0 0 0 0 0 0 -0 -0 0 0 0 0 0 0 0 0 0 0 0 0 0 0 0 0 -0 0 -0 -0 -0 -0 -0 -0
0 0 0 0 0 0 0 0 0 0 0 0 0 0 0 0 0 0 0 0 0 0 0 0 0 0 0 0 0 0 0 0 0 0 0 0 0 0 0 0 0 0 0 0 0 0 0 0 0 -0 -0 -0 -0 -0
0 0 0 0 0 0 0 0 0 0 0 0 0 0 0 0 0 0 0 0 0 0 0 0 0 0 0 0 0 0 0 0 0 0 0 0 0 0 0 0 0 0 0 0 0 0 0 0 0 0 -0 -0 -0 -0
0 0 0 0 0 0 0 0 0 0 0 0 0 0 0 0 0 0 0 0 0 0 0 0 0 0 0 0 0 0 0 0 0 0 0 0 0 0 0 0 0 0 0 0 0 0 0 0 0 0 0 0 -0 -0
0 0 0 0 0 0 0 0 0 0 0 0 0 0 0 0 0 0 0 0 0 0 0 0 0 0 0 0 0 0 0 0 0 0 0 0 0 0 0 0 0 0 0 0 0 0 0 0 0 0 0 0 0 0
0 0 0 0 0 0 0 0 0 0 0 0 0 0 0 0 0 0 0 0 0 0 0 0 0 0 0 0 0 0 0 0 0 0 0 0 0 0 0 0 0 0 0 0 0 0 0 0 0 0 0 0 0 0
0 0 0 0 0 0 0 0 0 0 0 0 0 0 0 0 0 0 0 0 0 0 0 0 0 0 0 0 0 0 0 0 0 0 0 0 0 0 0 0 0 0 0 0 0 0 0 0 0 0 0 0 0 0
0 0 0 0 0 0 0 0 0 0 0 0 0 0 0 0 0 0 0 0 0 0 0 0 0 0 0 0 0 0 0 0 0 0 0 0 0 0 0 0 0 0 0 0 0 0 0 0 0 0 0 0 0 0
0 0 0 0 0 0 0 0 0 0 0 0 0 0 0 0 0 0 0 0 0 0 0 0 0 0 0 0 0 0 0 0 0 0 0 0 0 0 0 0 0 0 0 0 0 0 0 0 0 0 0 0 0 0
0 0 0 0 0 0 0 0 0 0 0 0 0 0 0 0 0 0 0 0 0 0 0 0 0 0 0 0 0 0 0 0 0 0 0 0 0 0 0 0 0 0 0 0 0 0 0 0 0 0 0 0 0 0
0 0 0 0 0 0 0 0 0 0 0 0 0 0 0 0 0 0 0 0 0 0 0 0 0 0 0 0 0 0 0 0 0 0 0 0 0 0 0 0 0 0 0 0 0 0 0 0 0 0 0 0 0 0
0 0 0 0 0 0 0 0 0 0 0 0 0 0 0 0 0 0 0 0 0 0 0 0 0 0 0 0 0 0 0 0 0 0 0 0 0 0 0 0 0 0 0 0 0 0 0 0 0 0 0 0 0 0
-0 -0 -0 0 0 0 0 0 0 0 0 0 0 0 0 0 0 0 0 0 0 0 0 0 0 0 0 0 0 0 0 0 0 0 0 0 0 0 0 0 0 0 0 0 0 0 0 0 0 0 0 0 0 0
Wind_Speed_500mb
45 47 48 53 53 52 51 52 55 57 56 42 53 50 46 33 13 15 16 26 21 17 42 28 23 25 27 27 7 27 21 6 15 13 9 8 7 7 6 5 7 6 1 1 8 6 10 27 7 3 10 11 17 21
48 46 49 52 56 57 56 57 56 55 56 40 51 51 43 34 25 15 18 23 24 29 39 41 29 21 34 38 38 9 7 10 10 9 9 7 4 6 9 4 7 3 6 4 9 8 9 18 27 24 16 15 20 24
49 49 50 54 57 60 61 60 61 55 53 41 49 53 47 34 27 20 18 22 27 26 36 14 13 16 15 13 24 9 5 6 9 17 10 4 6 6 7 8 5 5 8 4 3 10 14 20 19 24 23 24 27 27
53 52 52 53 57 59 58 58 61 61 51 50 46 52 47 35 24 24 19 17 19 18 8 18 19 21 20 26 22 18 19 19 17 22 8 5 5 5 7 5 7 12 10 9 4 16 11 6 23 33 29 30 30 32
57 55 55 52 53 56 56 56 59 64 61 51 45 53 43 30 23 25 28 19 19 12 10 25 31 5 16 25 22 20 19 17 10 6 6 4 6 7 3 6 10 12 11 8 4 16 18 24 31 33 29 37 37 38
62 56 55 53 55 55 56 57 59 64 65 53 53 48 33 27 23 14 7 5 6 15 8 7 20 8 18 16 5 6 3 8 7 6 8 10 8 10 8 7 9 14 18 14 17 30 33 30 22 25 39 39 37 36
56 50 52 52 53 53 53 57 59 63 64 61 56 42 29 19 12 9 4 7 19 9 6 11 10 5 13 10 7 2 2 5 8 6 5 10 7 14 6 8 33 32 26 25 27 24 26 20 37 39 36 38 37 35
52 49 52 54 55 52 50 57 59 62 62 63 56 41 14 7 7 6 16 12 20 4 5 6 9 14 12 9 6 6 5 2 3 8 8 13 18 8 6 24 29 27 30 15 25 25 28 33 34 35 34 35 39 36
54 54 55 54 53 51 47 50 56 60 60 58 48 21 4 3 3 6 13 20 10 9 6 5 6 7 15 8 5 6 6 3 9 5 3 7 4 5 8 20 24 25 22 28 30 30 26 27 31 33 36 36 36 39
49 48 50 53 47 49 43 48 54 56 60 47 24 7 6 6 8 17 2 5 6 8 9 8 6 7 14 13 4 5 5 4 3 6 2 2 6 13 18 21 19 16 16 14 18 27 35 34 34 37 37 38 40 42
39 43 45 45 45 44 41 46 50 52 52 35 14 7 16 15 14 7 7 9 10 8 12 10 11 14 3 7 6 4 4 3 4 6 3 4 4 9 15 10 12 14 18 19 20 25 28 30 33 36 38 39 42 44
43 40 40 42 46 41 39 41 40 39 39 44 30 28 15 3 9 8 7 7 9 4 9 8 14 10 3 2 5 4 4 4 2 4 5 4 5 10 13 15 16 18 22 26 29 27 29 34 32 32 37 40 42 45
46 45 52 54 46 37 39 32 24 37 48 29 7 6 6 6 6 10 11 7 6 10 8 5 8 5 3 5 4 2 3 4 12 5 0 2 5 9 7 9 19 25 28 31 35 36 37 35 33 34 35 34 39 43
47 45 43 39 37 29 21 19 30 32 29 6 5 9 10 10 10 9 10 5 6 9 8 10 6 6 4 6 4 4 2 2 4 4 4 6 15 17 14 11 13 22 29 33 34 36 40 42 35 33 36 39 41 44
46 46 35 31 22 15 25 30 27 30 10 9 8 10 13 20 12 12 16 11 13 10 8 7 7 8 6 5 4 4 4 6 5 5 2 10 14 18 18 17 18 23 29 33 34 38 43 43 35 35 38 43 46 47
40 45 23 21 25 32 32 30 30 20 11 12 16 12 15 13 19 20 24 26 16 13 7 7 6 5 8 5 6 8 4 7 5 5 10 12 15 16 14 16 16 16 21 29 32 34 37 42 40 37 39 43 49 53
34 12 25 36 42 44 29 35 15 13 13 12 16 29 36 23 22 21 14 21 19 21 11 6 7 8 5 6 5 6 7 4 14 16 10 13 15 14 14 15 12 15 20 25 26 29 30 32 38 43 43 44 49 52
32 31 30 30 34 39 35 17 12 13 16 24 16 27 29 28 28 25 20 19 22 27 18 13 12 14 10 9 6 9 19 18 16 19 18 15 11 11 12 10 8 12 17 23 29 35 36 40 41 46 46 44 49 53
35 38 33 20 27 27 11 9 13 12 22 23 32 35 30 31 33 32 30 26 29 23 19 10 13 16 20 28 23 25 20 18 25 16 17 15 12 12 11 8 8 10 14 18 23 28 30 32 34 38 38 38 44 50
34 29 23 20 26 11 10 12 12 14 11 11 19 24 29 27 24 22 24 25 28 17 18 12 19 37 37 34 30 29 26 20 19 24 20 16 10 12 10 12 9 10 13 16 22 25 28 29 34 39 35 38 42 45
34 12 15 18 18 18 14 12 15 15 15 15 19 17 20 19 25 27 27 24 31 13 15 34 42 47 43 41 42 35 28 25 27 26 22 12 11 15 10 11 9 12 15 17 21 25 27 30 36 37 38 42 43 41
28 18 27 27 12 12 18 23 17 10 12 22 28 31 27 22 32 33 23 23 20 40 38 35 34 36 36 36 34 34 32 28 27 23 21 15 13 14 12 8 9 13 15 17 20 24 26 27 31 35 35 38 38 43
24 24 19 18 18 15 16 19 17 15 10 9 8 8 9 8 8 8 10 20 26 20 22 27 25 20 25 27 23 22 22 27 27 25 19 16 15 11 8 5 7 10 15 18 20 21 22 28 28 31 30 34 34 40
26 16 12 15 28 11 13 12 13 10 14 18 12 13 12 10 5 9 12 25 20 10 15 20 24 26 18 15 21 23 21 22 24 21 18 14 11 9 4 4 6 8 11 16 19 17 20 24 29 28 28 28 31 32
12 15 15 15 15 13 11 9 12 10 11 20 24 13 7 7 6 8 12 12 4 8 10 7 10 14 18 20 19 17 18 26 26 22 18 17 13 9 6 2 3 5 10 15 16 16 18 22 24 25 25 26 29 27
13 19 18 13 10 12 12 12 15 26 27 23 11 9 4 8 9 11 7 6 1 4 7 8 7 7 12 16 20 20 25 26 25 26 22 17 12 10 6 1 3 2 11 12 11 11 17 21 22 27 22 22 25 22
14 17 18 22 15 13 11 18 17 7 10 8 9 10 8 10 12 5 11 7 8 10 13 12 8 6 7 9 15 23 26 26 24 23 22 17 17 13 8 4 1 3 4 4 6 12 17 18 19 23 20 19 20 23
24 25 30 36 31 28 23 25 14 10 11 12 4 9 7 10 5 5 8 3 9 14 14 14 15 10 2 6 15 27 27 25 28 27 22 17 16 13 9 7 3 5 1 2 9 10 11 12 16 19 16 16 18 21
19 33 36 29 48 40 28 20 22 32 36 36 20 21 24 29 22 15 12 9 20 28 28 26 20 16 12 12 14 23 27 29 32 33 29 21 21 16 14 10 4 4 4 5 9 9 10 12 13 15 19 16 16 18
45 40 41 40 36 36 55 59 54 51 49 42 37 42 43 41 34 21 21 23 28 29 27 25 24 23 16 12 12 17 19 21 23 23 25 24 19 17 17 13 10 8 6 2 1 6 12 12 14 12 15 17 11 10
36 31 37 43 38 53 54 52 53 53 52 47 46 47 47 42 25 24 26 30 19 18 16 12 11 13 21 11 7 11 10 12 15 22 13 12 17 19 16 14 12 9 7 6 4 4 5 6 8 15 17 15 12 9
32 24 17 28 35 49 47 44 42 43 43 44 44 43 39 19 13 4 17 9 13 8 6 9 10 12 10 12 11 15 16 13 18 17 17 15 15 14 13 10 9 10 11 9 7 4 4 10 13 15 16 11 6 6
43 47 47 38 27 23 36 23 14 22 32 36 37 35 31 9 9 8 14 15 8 6 15 13 9 11 11 11 11 10 13 15 17 19 20 19 16 16 14 11 12 12 12 11 9 10 9 5 5 6 7 3 4 6
Wind_Direction_500mb
335 340 342 348 345 342 343 346 349 350 346 340 346 350 347 339 314 302 292 294 277 272 294 289 293 284 278 282 278 309 323 5 297 352 355 346 318 353 283 316 352 11 330 161 294 133 127 355 97 324 42 35 9 0
326 329 335 337 344 343 339 341 344 347 348 339 344 343 343 331 323 291 288 289 292 266 277 296 289 280 258 267 279 260 272 287 296 324 4 326 298 302 306 91 325 88 9 14 11 74 70 62 71 63 34 15 13 357
319 322 327 329 332 336 340 336 338 341 346 337 340 340 334 327 312 303 273 284 297 283 305 285 303 316 303 260 250 237 222 256 331 329 321 319 316 327 350 27 327 41 17 45 242 356 86 73 54 32 13 4 359 354
318 317 319 323 326 329 332 337 337 340 338 337 330 336 329 320 299 300 272 275 271 277 283 322 318 330 309 315 308 281 280 263 284 303 297 308 294 351 335 352 338 354 341 357 55 37 139 59 18 358 351 352 354 353
310 312 315 317 324 327 327 332 334 340 341 336 330 334 327 312 296 295 300 283 246 269 297 302 316 325 319 332 338 310 288 274 267 274 280 306 328 314 251 114 44 1 7 11 15 341 324 320 336 339 341 340 342 342
303 307 311 312 317 323 324 326 331 337 340 336 330 333 324 308 290 291 285 286 316 281 288 297 328 320 348 342 23 107 118 201 218 206 223 269 6 313 339 41 30 21 350 338 305 319 311 311 319 337 328 327 329 330
304 301 309 316 312 320 323 326 328 336 338 336 330 332 322 299 269 195 275 264 312 289 263 293 288 350 344 33 8 62 248 227 227 241 254 346 355 309 304 28 359 349 335 312 302 315 315 329 324 324 325 322 321 322
302 299 303 312 315 318 320 325 327 333 337 336 329 332 328 285 214 213 258 257 311 257 257 287 301 315 349 355 4 347 321 282 47 338 15 356 319 311 19 1 337 342 341 353 335 324 308 311 314 319 324 326 321 318
297 297 299 301 309 315 319 324 327 330 336 335 326 328 4 116 141 237 275 287 240 220 284 233 296 320 337 357 340 329 337 337 29 38 9 334 355 32 260 291 299 299 311 307 319 324 325 322 320 321 322 321 320 318
299 300 297 298 301 309 314 321 325 330 336 339 336 321 230 206 291 300 141 163 209 208 228 256 311 298 322 335 346 342 350 315 360 89 176 280 37 312 276 269 305 329 336 338 335 323 323 321 327 323 319 315 313 311
301 311 312 308 305 308 316 315 318 326 341 353 333 274 265 281 296 221 209 213 175 229 206 245 296 321 326 316 330 353 294 318 251 109 257 148 311 338 11 12 4 9 18 14 4 6 357 331 319 320 320 318 316 312
294 298 307 307 309 319 314 314 313 325 334 320 293 287 299 239 210 228 208 174 214 241 188 270 346 314 297 276 271 298 296 302 280 97 210 190 264 330 8 12 9 357 358 3 3 2 358 358 349 332 321 322 322 314
296 291 294 296 309 310 311 307 299 318 329 326 298 269 230 203 242 216 196 193 215 189 197 296 312 315 199 259 258 290 247 256 318 255 23 21 30 331 346 0 4 7 5 2 2 3 356 349 348 348 338 332 328 323
305 301 303 299 311 308 305 302 311 322 335 281 258 266 221 200 230 208 210 208 167 216 255 288 278 241 199 221 263 224 197 235 245 249 227 346 357 339 328 312 339 356 357 356 359 358 356 354 347 341 340 339 338 330
308 305 310 308 310 303 305 303 305 309 284 257 217 245 229 235 241 219 222 209 208 215 234 236 242 227 186 238 216 288 222 235 226 210 241 313 320 320 321 321 319 335 348 350 352 354 352 353 349 348 353 353 346 339
312 311 326 320 300 309 312 302 305 298 242 229 231 250 236 250 246 223 228 233 218 212 193 237 250 224 215 205 194 214 238 229 226 214 271 319 321 316 315 316 294 319 338 341 343 348 350 354 346 339 342 344 344 343
307 304 308 315 311 312 307 300 292 230 237 228 239 234 250 260 270 272 244 242 208 207 235 220 229 230 128 219 223 191 214 213 219 242 256 295 299 295 305 321 315 317 326 335 336 339 339 344 351 350 342 340 344 348
301 299 291 312 327 324 321 265 231 239 245 242 247 249 238 245 262 258 247 226 206 220 223 230 261 214 229 185 208 208 233 241 251 268 265 285 273 267 287 311 294 304 321 327 331 334 339 345 347 348 343 340 339 342
301 300 305 317 309 301 281 245 222 259 246 256 257 259 256 259 259 257 253 240 224 230 228 214 236 236 236 245 253 250 226 244 257 263 251 246 250 234 239 261 269 291 311 320 327 329 330 335 338 339 340 340 337 341
295 294 301 278 284 248 256 248 223 255 260 268 257 257 251 258 265 258 246 229 208 202 211 222 236 242 250 248 234 250 270 271 242 249 255 241 249 222 237 262 268 289 310 318 323 328 331 330 336 340 342 343 345 344
307 302 304 292 287 242 261 262 240 247 270 258 274 265 268 266 260 254 240 222 208 229 228 238 253 258 255 253 253 259 244 246 241 245 263 270 248 239 243 234 260 288 311 320 326 330 332 331 335 338 341 345 346 352
278 280 293 271 245 243 248 235 237 270 258 260 273 262 268 266 263 260 239 211 234 243 247 253 267 268 255 241 237 242 244 239 230 226 222 232 242 231 226 244 271 298 305 316 324 326 329 330 335 342 339 336 344 349
265 249 254 229 224 231 253 220 228 226 245 239 238 248 233 230 231 192 223 232 255 269 264 274 271 263 251 249 243 232 224 216 209 209 215 227 232 227 242 258 280 292 302 316 319 322 331 335 335 346 341 341 342 350
230 227 229 218 207 243 230 224 215 251 240 232 244 254 262 250 221 240 240 257 268 296 295 270 249 248 241 216 210 220 221 213 211 202 194 202 200 188 202 277 292 293 297 310 313 324 336 338 342 340 348 348 348 353
247 220 208 227 230 213 227 219 214 223 242 235 241 233 245 209 241 249 243 257 217 320 329 305 239 234 233 236 235 236 214 204 196 181 168 175 172 174 171 189 313 311 325 320 321 328 334 339 340 344 347 349 356 6
244 211 206 213 201 210 221 229 221 236 241 243 238 238 211 227 238 244 210 198 117 8 334 312 314 273 246 244 238 199 180 174 172 163 161 166 169 168 165 212 336 325 335 329 321 326 335 340 340 341 348 352 350 6
242 224 213 224 245 255 250 254 273 292 264 251 233 217 207 224 227 229 147 119 91 42 23 5 343 306 279 210 175 167 164 163 169 162 158 152 159 152 149 140 11 314 349 3 355 345 339 339 347 347 352 355 355 6
226 246 233 224 231 231 254 260 257 240 237 225 213 223 215 210 237 110 145 117 357 348 346 348 355 354 311 175 169 163 158 161 178 189 168 156 158 158 151 133 33 14 89 350 341 343 348 349 351 353 0 7 1 3
230 235 246 250 252 255 238 240 245 255 266 275 275 277 286 291 304 285 288 295 298 307 302 296 291 305 308 221 184 185 190 187 183 184 190 189 179 184 178 176 176 159 175 320 336 338 346 347 357 2 5 8 3 356
241 240 244 245 247 251 258 262 268 270 273 274 282 284 285 282 279 285 292 294 290 291 292 282 272 243 242 223 204 184 185 195 207 222 220 218 205 191 180 181 190 196 199 215 289 319 344 3 353 359 1 352 357 351
250 243 233 237 250 254 260 262 263 265 265 266 266 266 267 274 285 269 272 276 285 288 283 285 238 196 194 187 188 180 188 220 205 206 182 173 173 165 174 183 188 197 221 223 226 256 283 311 330 326 335 343 352 350
241 225 234 248 254 261 263 263 259 260 262 258 256 257 255 246 207 126 17 281 226 196 205 174 134 103 114 172 207 204 194 214 207 207 191 157 159 167 174 174 190 202 206 206 203 212 279 290 309 321 327 340 14 47
241 251 256 267 271 267 250 233 244 253 248 243 244 236 231 196 94 35 37 29 52 102 126 141 150 197 202 211 215 187 171 174 179 187 188 188 201 233 243 208 193 187 180 184 242 275 286 298 318 344 348 23 102 105
Wind_Speed_850mb
45 47 48 53 53 52 51 52 55 57 56 42 53 50 46 33 13 15 16 26 21 17 42 28 23 25 27 27 7 27 21 6 15 13 9 8 7 7 6 5 7 6 1 1 8 6 10 27 7 3 10 11 17 21
48 46 49 52 56 57 56 57 56 55 56 40 51 51 43 34 25 15 18 23 24 29 39 41 29 21 34 38 38 9 7 10 10 9 9 7 4 6 9 4 7 3 6 4 9 8 9 18 27 24 16 15 20 24
49 49 50 54 57 60 61 60 61 55 53 41 49 53 47 34 27 20 18 22 27 26 36 14 13 16 15 13 24 9 5 6 9 17 10 4 6 6 7 8 5 5 8 4 3 10 14 20 19 24 23 24 27 27
53 52 52 53 57 59 58 58 61 61 51 50 46 52 47 35 24 24 19 17 19 18 8 18 19 21 20 26 22 18 19 19 17 22 8 5 5 5 7 5 7 12 10 9 4 16 11 6 23 33 29 30 30 32
57 55 55 52 53 56 56 56 59 64 61 51 45 53 43 30 23 25 28 19 19 12 10 25 31 5 16 25 22 20 19 17 10 6 6 4 6 7 3 6 10 12 11 8 4 16 18 24 31 33 29 37 37 38
62 56 55 53 55 55 56 57 59 64 65 53 53 48 33 27 23 14 7 5 6 15 8 7 20 8 18 16 5 6 3 8 7 6 8 10 8 10 8 7 9 14 18 14 17 30 33 30 22 25 39 39 37 36
56 50 52 52 53 53 53 57 59 63 64 61 56 42 29 19 12 9 4 7 19 9 6 11 10 5 13 10 7 2 2 5 8 6 5 10 7 14 6 8 33 32 26 25 27 24 26 20 37 39 36 38 37 35
52 49 52 54 55 52 50 57 59 62 62 63 56 41 14 7 7 6 16 12 20 4 5 6 9 14 12 9 6 6 5 2 3 8 8 13 18 8 6 24 29 27 30 15 25 25 28 33 34 35 34 35 39 36
54 54 55 54 53 51 47 50 56 60 60 58 48 21 4 3 3 6 13 20 10 9 6 5 6 7 15 8 5 6 6 3 9 5 3 7 4 5 8 20 24 25 22 28 30 30 26 27 31 33 36 36 36 39
49 48 50 53 47 49 43 48 54 56 60 47 24 7 6 6 8 17 2 5 6 8 9 8 6 7 14 13 4 5 5 4 3 6 2 2 6 13 18 21 19 16 16 14 18 27 35 34 34 37 37 38 40 42
39 43 45 45 45 44 41 46 50 52 52 35 14 7 16 15 14 7 7 9 10 8 12 10 11 14 3 7 6 4 4 3 4 6 3 4 4 9 15 10 12 14 18 19 20 25 28 30 33 36 38 39 42 44
43 40 40 42 46 41 39 41 40 39 39 44 30 28 15 3 9 8 7 7 9 4 9 8 14 10 3 2 5 4 4 4 2 4 5 4 5 10 13 15 16 18 22 26 29 27 29 34 32 32 37 40 42 45
46 45 52 54 46 37 39 32 24 37 48 29 7 6 6 6 6 10 11 7 6 10 8 5 8 5 3 5 4 2 3 4 12 5 0 2 5 9 7 9 19 25 28 31 35 36 37 35 33 34 35 34 39 43
47 45 43 39 37 29 21 19 30 32 29 6 5 9 10 10 10 9 10 5 6 9 8 10 6 6 4 6 4 4 2 2 4 4 4 6 15 17 14 11 13 22 29 33 34 36 40 42 35 33 36 39 41 44
46 46 35 31 22 15 25 30 27 30 10 9 8 10 13 20 12 12 16 11 13 10 8 7 7 8 6 5 4 4 4 6 5 5 2 10 14 18 18 17 18 23 29 33 34 38 43 43 35 35 38 43 46 47
40 45 23 21 25 32 32 30 30 20 11 12 16 12 15 13 19 20 24 26 16 13 7 7 6 5 8 5 6 8 4 7 5 5 10 12 15 16 14 16 16 16 21 29 32 34 37 42 40 37 39 43 49 53
34 12 25 36 42 44 29 35 15 13 13 12 16 29 36 23 22 21 14 21 19 21 11 6 7 8 5 6 5 6 7 4 14 16 10 13 15 14 14 15 12 15 20 25 26 29 30 32 38 43 43 44 49 52
32 31 30 30 34 39 35 17 12 13 16 24 16 27 29 28 28 25 20 19 22 27 18 13 12 14 10 9 6 9 19 18 16 19 18 15 11 11 12 10 8 12 17 23 29 35 36 40 41 46 46 44 49 53
35 38 33 20 27 27 11 9 13 12 22 23 32 35 30 31 33 32 30 26 29 23 19 10 13 16 20 28 23 25 20 18 25 16 17 15 12 12 11 8 8 10 14 18 23 28 30 32 34 38 38 38 44 50
34 29 23 20 26 11 10 12 12 14 11 11 19 24 29 27 24 22 24 25 28 17 18 12 19 37 37 34 30 29 26 20 19 24 20 16 10 12 10 12 9 10 13 16 22 25 28 29 34 39 35 38 42 45
34 12 15 18 18 18 14 12 15 15 15 15 19 17 20 19 25 27 27 24 31 13 15 34 42 47 43 41 42 35 28 25 27 26 22 12 11 15 10 11 9 12 15 17 21 25 27 30 36 37 38 42 43 41
28 18 27 27 12 12 18 23 17 10 12 22 28 31 27 22 32 33 23 23 20 40 38 35 34 36 36 36 34 34 32 28 27 23 21 15 13 14 12 8 9 13 15 17 20 24 26 27 31 35 35 38 38 43
24 24 19 18 18 15 16 19 17 15 10 9 8 8 9 8 8 8 10 20 26 20 22 27 25 20 25 27 23 22 22 27 27 25 19 16 15 11 8 5 7 10 15 18 20 21 22 28 28 31 30 34 34 40
26 16 12 15 28 11 13 12 13 10 14 18 12 13 12 10 5 9 12 25 20 10 15 20 24 26 18 15 21 23 21 22 24 21 18 14 11 9 4 4 6 8 11 16 19 17 20 24 29 28 28 28 31 32
12 15 15 15 15 13 11 9 12 10 11 20 24 13 7 7 6 8 12 12 4 8 10 7 10 14 18 20 19 17 18 26 26 22 18 17 13 9 6 2 3 5 10 15 16 16 18 22 24 25 25 26 29 27
13 19 18 13 10 12 12 12 15 26 27 23 11 9 4 8 9 11 7 6 1 4 7 8 7 7 12 16 20 20 25 26 25 26 22 17 12 10 6 1 3 2 11 12 11 11 17 21 22 27 22 22 25 22
14 17 18 22 15 13 11 18 17 7 10 8 9 10 8 10 12 5 11 7 8 10 13 12 8 6 7 9 15 23 26 26 24 23 22 17 17 13 8 4 1 3 4 4 6 12 17 18 19 23 20 19 20 23
24 25 30 36 31 28 23 25 14 10 11 12 4 9 7 10 5 5 8 3 9 14 14 14 15 10 2 6 15 27 27 25 28 27 22 17 16 13 9 7 3 5 1 2 9 10 11 12 16 19 16 16 18 21
19 33 36 29 48 40 28 20 22 32 36 36 20 21 24 29 22 15 12 9 20 28 28 26 20 16 12 12 14 23 27 29 32 33 29 21 21 16 14 10 4 4 4 5 9 9 10 12 13 15 19 16 16 18
45 40 41 40 36 36 55 59 54 51 49 42 37 42 43 41 34 21 21 23 28 29 27 25 24 23 16 12 12 17 19 21 23 23 25 24 19 17 17 13 10 8 6 2 1 6 12 12 14 12 15 17 11 10
36 31 37 43 38 53 54 52 53 53 52 47 46 47 47 42 25 24 26 30 19 18 16 12 11 13 21 11 7 11 10 12 15 22 13 12 17 19 16 14 12 9 7 6 4 4 5 6 8 15 17 15 12 9
32 24 17 28 35 49 47 44 42 43 43 44 44 43 39 19 13 4 17 9 13 8 6 9 10 12 10 12 11 15 16 13 18 17 17 15 15 14 13 10 9 10 11 9 7 4 4 10 13 15 16 11 6 6
43 47 47 38 27 23 36 23 14 22 32 36 37 35 31 9 9 8 14 15 8 6 15 13 9 11 11 11 11 10 13 15 17 19 20 19 16 16 14 11 12 12 12 11 9 10 9 5 5 6 7 3 4 6
Wind_Direction_850mb
335 340 342 348 345 342 343 346 349 350 346 340 346 350 347 339 314 302 292 294 277 272 294 289 293 284 278 282 278 309 323 5 297 352 355 346 318 353 283 316 352 11 330 161 294 133 127 355 97 324 42 35 9 0
326 329 335 337 344 343 339 341 344 347 348 339 344 343 343 331 323 291 288 289 292 266 277 296 289 280 258 267 279 260 272 287 296 324 4 326 298 302 306 91 325 88 9 14 11 74 70 62 71 63 34 15 13 357
319 322 327 329 332 336 340 336 338 341 346 337 340 340 334 327 312 303 273 284 297 283 305 285 303 316 303 260 250 237 222 256 331 329 321 319 316 327 350 27 327 41 17 45 242 356 86 73 54 32 13 4 359 354
318 317 319 323 326 329 332 337 337 340 338 337 330 336 329 320 299 300 272 275 271 277 283 322 318 330 309 315 308 281 280 263 284 303 297 308 294 351 335 352 338 354 341 357 55 37 139 59 18 358 351 352 354 353
310 312 315 317 324 327 327 332 334 340 341 336 330 334 327 312 296 295 300 283 246 269 297 302 316 325 319 332 338 310 288 274 267 274 280 306 328 314 251 114 44 1 7 11 15 341 324 320 336 339 341 340 342 342
303 307 311 312 317 323 324 326 331 337 340 336 330 333 324 308 290 291 285 286 316 281 288 297 328 320 348 342 23 107 118 201 218 206 223 269 6 313 339 41 30 21 350 338 305 319 311 311 319 337 328 327 329 330
304 301 309 316 312 320 323 326 328 336 338 336 330 332 322 299 269 195 275 264 312 289 263 293 288 350 344 33 8 62 248 227 227 241 254 346 355 309 304 28 359 349 335 312 302 315 315 329 324 324 325 322 321 322
302 299 303 312 315 318 320 325 327 333 337 336 329 332 328 285 214 213 258 257 311 257 257 287 301 315 349 355 4 347 321 282 47 338 15 356 319 311 19 1 337 342 341 353 335 324 308 311 314 319 324 326 321 318
297 297 299 301 309 315 319 324 327 330 336 335 326 328 4 116 141 237 275 287 240 220 284 233 296 320 337 357 340 329 337 337 29 38 9 334 355 32 260 291 299 299 311 307 319 324 325 322 320 321 322 321 320 318
299 300 297 298 301 309 314 321 325 330 336 339 336 321 230 206 291 300 141 163 209 208 228 256 311 298 322 335 346 342 350 315 360 89 176 280 37 312 276 269 305 329 336 338 335 323 323 321 327 323 319 315 313 311
301 311 312 308 305 308 316 315 318 326 341 353 333 274 265 281 296 221 209 213 175 229 206 245 296 321 326 316 330 353 294 318 251 109 257 148 311 338 11 12 4 9 18 14 4 6 357 331 319 320 320 318 316 312
294 298 307 307 309 319 314 314 313 325 334 320 293 287 299 239 210 228 208 174 214 241 188 270 346 314 297 276 271 298 296 302 280 97 210 190 264 330 8 12 9 357 358 3 3 2 358 358 349 332 321 322 322 314
296 291 294 296 309 310 311 307 299 318 329 326 298 269 230 203 242 216 196 193 215 189 197 296 312 315 199 259 258 290 247 256 318 255 23 21 30 331 346 0 4 7 5 2 2 3 356 349 348 348 338 332 328 323
305 301 303 299 311 308 305 302 311 322 335 281 258 266 221 200 230 208 210 208 167 216 255 288 278 241 199 221 263 224 197 235 245 249 227 346 357 339 328 312 339 356 357 356 359 358 356 354 347 341 340 339 338 330
308 305 310 308 310 303 305 303 305 309 284 257 217 245 229 235 241 219 222 209 208 215 234 236 242 227 186 238 216 288 222 235 226 210 241 313 320 320 321 321 319 335 348 350 352 354 352 353 349 348 353 353 346 339
312 311 326 320 300 309 312 302 305 298 242 229 231 250 236 250 246 223 228 233 218 212 193 237 250 224 215 205 194 214 238 229 226 214 271 319 321 316 315 316 294 319 338 341 343 348 350 354 346 339 342 344 344 343
307 304 308 315 311 312 307 300 292 230 237 228 239 234 250 260 270 272 244 242 208 207 235 220 229 230 128 219 223 191 214 213 219 242 256 295 299 295 305 321 315 317 326 335 336 339 339 344 351 350 342 340 344 348
301 299 291 312 327 324 321 265 231 239 245 242 247 249 238 245 262 258 247 226 206 220 223 230 261 214 229 185 208 208 233 241 251 268 265 285 273 267 287 311 294 304 321 327 331 334 339 345 347 348 343 340 339 342
301 300 305 317 309 301 281 245 222 259 246 256 257 259 256 259 259 257 253 240 224 230 228 214 236 236 236 245 253 250 226 244 257 263 251 246 250 234 239 261 269 291 311 320 327 329 330 335 338 339 340 340 337 341
295 294 301 278 284 248 256 248 223 255 260 268 257 257 251 258 265 258 246 229 208 202 211 222 236 242 250 248 234 250 270 271 242 249 255 241 249 222 237 262 268 289 310 318 323 328 331 330 336 340 342 343 345 344
307 302 304 292 287 242 261 262 240 247 270 258 274 265 268 266 260 254 240 222 208 229 228 238 253 258 255 253 253 259 244 246 241 245 263 270 248 239 243 234 260 288 311 320 326 330 332 331 335 338 341 345 346 352
278 280 293 271 245 243 248 235 237 270 258 260 273 262 268 266 263 260 239 211 234 243 247 253 267 268 255 241 237 242 244 239 230 226 222 232 242 231 226 244 271 298 305 316 324 326 329 330 335 342 339 336 344 349
265 249 254 229 224 231 253 220 228 226 245 239 238 248 233 230 231 192 223 232 255 269 264 274 271 263 251 249 243 232 224 216 209 209 215 227 232 227 242 258 280 292 302 316 319 322 331 335 335 346 341 341 342 350
230 227 229 218 207 243 230 224 215 251 240 232 244 254 262 250 221 240 240 257 268 296 295 270 249 248 241 216 210 220 221 213 211 202 194 202 200 188 202 277 292 293 297 310 313 324 336 338 342 340 348 348 348 353
247 220 208 227 230 213 227 219 214 223 242 235 241 233 245 209 241 249 243 257 217 320 329 305 239 234 233 236 235 236 214 204 196 181 168 175 172 174 171 189 313 311 325 320 321 328 334 339 340 344 347 349 356 6
244 211 206 213 201 210 221 229 221 236 241 243 238 238 211 227 238 244 210 198 117 8 334 312 314 273 246 244 238 199 180 174 172 163 161 166 169 168 165 212 336 325 335 329 321 326 335 340 340 341 348 352 350 6
242 224 213 224 245 255 250 254 273 292 264 251 233 217 207 224 227 229 147 119 91 42 23 5 343 306 279 210 175 167 164 163 169 162 158 152 159 152 149 140 11 314 349 3 355 345 339 339 347 347 352 355 355 6
226 246 233 224 231 231 254 260 257 240 237 225 213 223 215 210 237 110 145 117 357 348 346 348 355 354 311 175 169 163 158 161 178 189 168 156 158 158 151 133 33 14 89 350 341 343 348 349 351 353 0 7 1 3
230 235 246 250 252 255 238 240 245 255 266 275 275 277 286 291 304 285 288 295 298 307 302 296 291 305 308 221 184 185 190 187 183 184 190 189 179 184 178 176 176 159 175 320 336 338 346 347 357 2 5 8 3 356
241 240 244 245 247 251 258 262 268 270 273 274 282 284 285 282 279 285 292 294 290 291 292 282 272 243 242 223 204 184 185 195 207 222 220 218 205 191 180 181 190 196 199 215 289 319 344 3 353 359 1 352 357 351
250 243 233 237 250 254 260 262 263 265 265 266 266 266 267 274 285 269 272 276 285 288 283 285 238 196 194 187 188 180 188 220 205 206 182 173 173 165 174 183 188 197 221 223 226 256 283 311 330 326 335 343 352 350
241 225 234 248 254 261 263 263 259 260 262 258 256 257 255 246 207 126 17 281 226 196 205 174 134 103 114 172 207 204 194 214 207 207 191 157 159 167 174 174 190 202 206 206 203 212 279 290 309 321 327 340 14 47
241 251 256 267 271 267 250 233 244 253 248 243 244 236 231 196 94 35 37 29 52 102 126 141 150 197 202 211 215 187 171 174 179 187 188 188 201 233 243 208 193 187 180 184 242 275 286 298 318 344 348 23 102 105